Kimball, NE

7:24 AM MDT on July 27, 2017 (GMT -0600)
Kimball Municipal-Arraj

Weather History for KIBM - March, 2013

Change the Weather History Date:

Tuesday, March 5, 2013

  Actual Average (KSNY) Record (KSNY)
Temperature  
Mean Temperature 28 °F -  
Max Temperature 42 °F 40 °F 73 °F (2012)
Min Temperature 14 °F 14 °F -19 °F (1989)
Degree Days  
Heating Degree Days 37    
Moisture  
Dew Point 11 °F    
Average Humidity 52    
Maximum Humidity 77    
Minimum Humidity 26    
Precipitation  
Precipitation 0.00 in - - ()
Sea Level Pressure  
Sea Level Pressure 30.18 in    
Wind  
Wind Speed 14 mph (West)    
Max Wind Speed 25 mph    
Max Gust Speed 34 mph    
Visibility 10 miles    
Events      
Averages and records for this station are not official NWS values.
T = Trace of Precipitation, MM = Missing Value Source: NWS Daily Summary

Daily Weather History Graph

Daily Weather History Graph

Search for Another Location

Airport or City:

Trip Planner

Search our weather history database for the weather conditions in past years. The results will help you decide how hot, cold, wet, or windy it might be!

Date:

Astronomy

Mar. 05, 2013 Rise Set
Actual Time 7:22 AM CST 6:50 PM CST
Civil Twilight 6:54 AM CST 7:18 PM CST
Nautical Twilight 6:22 AM CST 7:50 PM CST
Astronomical Twilight 5:50 AM CST 8:22 PM CST
Moon 2:39 AM CST (3/5) 12:29 PM CST (3/5)
Length of Visible Light 12h 23m
Length of Day
11h 28m
Last Quarter, 40% of the Moon is Illuminated
Mar 5
Last Quarter
Mar 11
New
Mar 19
First Quarter
Mar 27
Full
Apr 2
Last Quarter

Hourly Weather History & Observations

Time (CST) Temp. Windchill Dew Point Humidity Pressure Visibility Wind Dir Wind Speed Gust Speed Precip Events Conditions
12:15 AM 19.2 °F 3.0 °F 9.1 °F 65% 30.16 in 10.0 mi NNW 20.7 mph 29.9 mph N/A   Clear
12:35 AM 18.9 °F 4.3 °F 8.8 °F 65% 30.17 in 10.0 mi NW 16.1 mph 23.0 mph N/A   Clear
12:55 AM 18.9 °F 1.0 °F 7.9 °F 62% 30.17 in 10.0 mi NNW 25.3 mph 29.9 mph N/A   Clear
1:15 AM 18.5 °F 2.0 °F 7.7 °F 63% 30.17 in 10.0 mi NW 20.7 mph 26.5 mph N/A   Clear
1:55 AM 18.5 °F 2.9 °F 6.8 °F 60% 30.18 in 10.0 mi NW 18.4 mph 23.0 mph N/A   Clear
2:15 AM 18.5 °F 2.0 °F 6.1 °F 58% 30.17 in 10.0 mi NW 20.7 mph - N/A   Clear
2:35 AM 18.9 °F 1.7 °F 5.9 °F 57% 30.17 in 10.0 mi NW 23.0 mph 28.8 mph N/A   Clear
2:55 AM 18.5 °F 1.6 °F 5.9 °F 58% 30.17 in 10.0 mi NNW 21.9 mph - N/A   Clear
3:15 AM 18.3 °F 1.4 °F 5.9 °F 58% 30.17 in 10.0 mi NNW 21.9 mph 28.8 mph N/A   Clear
3:35 AM 17.8 °F 0.7 °F 5.9 °F 60% 30.17 in 10.0 mi NNW 21.9 mph - N/A   Clear
3:55 AM 18.3 °F 0.3 °F 6.3 °F 59% 30.17 in 10.0 mi NNW 25.3 mph 32.2 mph N/A   Clear
4:15 AM 18.3 °F 0.7 °F 6.4 °F 60% 30.17 in 10.0 mi NNW 24.2 mph 34.5 mph N/A   Clear
4:35 AM 18.1 °F 2.0 °F 6.6 °F 61% 30.17 in 10.0 mi NNW 19.6 mph 29.9 mph N/A   Clear
4:55 AM 17.6 °F 0.9 °F 6.8 °F 63% 30.17 in 10.0 mi NNW 20.7 mph 26.5 mph N/A   Clear
5:15 AM 17.6 °F 1.7 °F 6.6 °F 62% 30.18 in 10.0 mi NNW 18.4 mph 25.3 mph N/A   Clear
5:35 AM 17.6 °F 2.2 °F 6.8 °F 63% 30.19 in 10.0 mi NNW 17.3 mph 24.2 mph N/A   Clear
5:55 AM 17.4 °F 2.4 °F 7.0 °F 64% 30.19 in 10.0 mi NNW 16.1 mph - N/A   Clear
6:15 AM 17.4 °F 2.9 °F 7.5 °F 65% 30.19 in 10.0 mi NNW 15.0 mph 21.9 mph N/A   Clear
7:15 AM 15.3 °F 2.8 °F 8.2 °F 74% 30.21 in 10.0 mi NNW 10.4 mph - N/A   Clear
7:35 AM 14.9 °F 4.0 °F 8.4 °F 76% 30.21 in 10.0 mi NW 8.1 mph - N/A   Clear
7:55 AM 15.1 °F 5.2 °F 9.1 °F 77% 30.21 in 10.0 mi WNW 6.9 mph - N/A   Clear
8:15 AM 16.3 °F 4.1 °F 9.5 °F 74% 30.22 in 10.0 mi West 10.4 mph - N/A   Clear
8:35 AM 18.7 °F 7.8 °F 9.5 °F 67% 30.22 in 10.0 mi WNW 9.2 mph - N/A   Clear
8:55 AM 20.8 °F 14.4 °F 9.3 °F 61% 30.23 in 10.0 mi NNW 4.6 mph - N/A   Clear
9:15 AM 22.8 °F 14.5 °F 10.4 °F 59% 30.23 in 10.0 mi NNW 6.9 mph - N/A   Clear
9:35 AM 25.9 °F 19.2 °F 10.8 °F 53% 30.23 in 10.0 mi NNW 5.8 mph - N/A   Clear
9:55 AM 28.4 °F 21.2 °F 9.1 °F 44% 30.24 in 10.0 mi NW 6.9 mph - N/A   Clear
10:15 AM 30.4 °F 22.2 °F 8.8 °F 40% 30.24 in 10.0 mi NNW 9.2 mph - N/A   Clear
10:35 AM 31.1 °F 25.4 °F 8.1 °F 38% 30.25 in 10.0 mi NNW 5.8 mph - N/A   Clear
10:55 AM 31.5 °F - 7.9 °F 37% 30.24 in 10.0 mi Calm Calm - N/A   Clear
11:15 AM 32.2 °F 28.9 °F 8.1 °F 36% 30.24 in 10.0 mi NW 3.5 mph - N/A   Clear
11:35 AM 33.6 °F 27.5 °F 9.0 °F 36% 30.24 in 10.0 mi West 6.9 mph - N/A   Clear
11:55 AM 34.2 °F - 9.0 °F 35% 30.24 in 10.0 mi Calm Calm - N/A   Clear
12:15 PM 34.9 °F - 9.3 °F 35% 30.23 in 10.0 mi Calm Calm - N/A   Clear
12:35 PM 35.8 °F 30.1 °F 9.9 °F 34% 30.22 in 10.0 mi West 6.9 mph - N/A   Clear
12:55 PM 36.5 °F - 9.1 °F 32% 30.22 in 10.0 mi Calm Calm - N/A   Clear
1:15 PM 37.2 °F - 9.9 °F 32% 30.21 in 10.0 mi Calm Calm - N/A   Clear
1:35 PM 38.1 °F 32.9 °F 9.5 °F 31% 30.20 in 10.0 mi WSW 6.9 mph - N/A   Clear
1:55 PM 37.6 °F - 9.3 °F 31% 30.19 in 10.0 mi Calm Calm - N/A   Clear
2:15 PM 39.4 °F - 10.2 °F 30% 30.18 in 10.0 mi Calm Calm - N/A   Clear
2:35 PM 40.5 °F - 11.3 °F 30% 30.17 in 10.0 mi Calm Calm - N/A   Clear
2:55 PM 41.0 °F 38.0 °F 8.4 °F 26% 30.17 in 10.0 mi SSW 4.6 mph - N/A   Clear
3:15 PM 42.3 °F 37.3 °F 9.0 °F 26% 30.16 in 10.0 mi WSW 8.1 mph - N/A   Clear
3:35 PM 42.1 °F 36.6 °F 9.7 °F 27% 30.16 in 10.0 mi SSW 9.2 mph - N/A   Clear
3:55 PM 42.3 °F 35.9 °F 10.8 °F 28% 30.16 in 10.0 mi SW 11.5 mph - N/A   Clear
4:15 PM 42.3 °F 37.9 °F 10.0 °F 27% 30.16 in 10.0 mi South 6.9 mph - N/A   Clear
4:35 PM 42.6 °F 36.8 °F 9.9 °F 26% 30.15 in 10.0 mi SW 10.4 mph - N/A   Clear
4:55 PM 41.5 °F 35.9 °F 12.6 °F 31% 30.15 in 10.0 mi South 9.2 mph - N/A   Clear
5:15 PM 40.8 °F 34.5 °F 11.7 °F 30% 30.15 in 10.0 mi SSW 10.4 mph - N/A   Clear
5:35 PM 40.3 °F 33.9 °F 10.9 °F 30% 30.14 in 10.0 mi SSW 10.4 mph - N/A   Clear
5:55 PM 39.2 °F 32.0 °F 11.8 °F 33% 30.14 in 10.0 mi South 11.5 mph - N/A   Clear
6:15 PM 37.8 °F 30.2 °F 12.2 °F 35% 30.15 in 10.0 mi SSW 11.5 mph - N/A   Clear
6:35 PM 34.5 °F 27.9 °F 14.0 °F 43% 30.16 in 10.0 mi South 8.1 mph - N/A   Clear
6:55 PM 32.0 °F 24.2 °F 14.7 °F 49% 30.15 in 10.0 mi South 9.2 mph - N/A   Clear
7:15 PM 30.0 °F 22.4 °F 15.6 °F 55% 30.16 in 10.0 mi South 8.1 mph - N/A   Clear
7:35 PM 27.3 °F 19.9 °F 15.6 °F 61% 30.15 in 10.0 mi South 6.9 mph - N/A   Clear
7:55 PM 25.9 °F 19.2 °F 15.4 °F 65% 30.15 in 10.0 mi South 5.8 mph - N/A   Clear
8:15 PM 25.5 °F 17.8 °F 15.4 °F 66% 30.15 in 10.0 mi South 6.9 mph - N/A   Clear
8:35 PM 27.7 °F 17.6 °F 16.3 °F 62% 30.14 in 10.0 mi South 11.5 mph - N/A   Clear
8:55 PM 25.7 °F 17.1 °F 15.8 °F 66% 30.14 in 10.0 mi South 8.1 mph - N/A   Clear
9:15 PM 26.2 °F 17.1 °F 16.3 °F 66% 30.14 in 10.0 mi South 9.2 mph - N/A   Clear
9:35 PM 26.2 °F 18.6 °F 15.8 °F 65% 30.14 in 10.0 mi South 6.9 mph - N/A   Clear
9:55 PM 27.0 °F 17.3 °F 16.5 °F 65% 30.14 in 10.0 mi South 10.4 mph - N/A   Clear
10:15 PM 27.7 °F 16.6 °F 16.5 °F 63% 30.14 in 10.0 mi South 13.8 mph - N/A   Clear
10:35 PM 27.3 °F 17.7 °F 16.7 °F 64% 30.15 in 10.0 mi South 10.4 mph - N/A   Clear
10:55 PM 25.7 °F 14.6 °F 16.7 °F 69% 30.14 in 10.0 mi South 12.7 mph - N/A   Clear
11:15 PM 24.8 °F 14.0 °F 17.2 °F 73% 30.13 in 10.0 mi South 11.5 mph - N/A   Clear
11:35 PM 26.2 °F 14.7 °F 18.1 °F 71% 30.13 in 10.0 mi South 13.8 mph - N/A   Clear
11:55 PM 26.2 °F 16.4 °F 18.1 °F 71% 30.13 in 10.0 mi South 10.4 mph - N/A   Clear